Sign-in with your pilot id or email, or register

ICAO: ESSA Name / Country: Arlanda / Sweden
Latitude: 59.6519 Longitude: 17.9186
Total Arrivals:
Strict Standards: Non-static method AirportData::getarrflights() should not be called statically, assuming $this from incompatible context in /var/www/customers/vh-7192/web/home/phpvms/core/templates/airport_info.tpl on line 18
20
Total Departures:
Strict Standards: Non-static method AirportData::getdeptflights() should not be called statically, assuming $this from incompatible context in /var/www/customers/vh-7192/web/home/phpvms/core/templates/airport_info.tpl on line 21
3
Latest Arrival: MTAMAH1234 (LSZH-ESSA) Laszlo Bartucz Latest Departure: MTA834 (ESSA-LOWS) Laszlo Bartucz
Metar: ESSA 202320Z 09010KT 4800 -DZ BKN003 00/M00 Q0991 R19L/550175 R08/550168 TEMPO 2000 BR
More info

Charts for ESSA


NOTAM


Warning: file_get_contents(http://api.vateud.net/notams/ESSA.json): failed to open stream: HTTP request failed! HTTP/1.1 404 Not Found in /var/www/customers/vh-7192/web/home/phpvms/core/common/NOTAMSData.class.php on line 18

Warning: Invalid argument supplied for foreach() in /var/www/customers/vh-7192/web/home/phpvms/core/common/NOTAMSData.class.php on line 22

Arlanda